Weather History for Red Oak, IA

Change the Weather History Date:

Thursday, February 14, 2013

  Actual Average Record
Temperature  
Mean Temperature 36 °F -  
Max Temperature 46 °F 36 °F 70 °F (1954)
Min Temperature 26 °F 19 °F -7 °F (1951)
Degree Days  
Heating Degree Days 29    
Moisture  
Dew Point 27 °F    
Average Humidity 67    
Maximum Humidity 87    
Minimum Humidity 39    
Precipitation  
Precipitation 0.00 in - - ()
Sea Level Pressure  
Sea Level Pressure 29.99 in    
Wind  
Wind Speed 10 mph (NW)    
Max Wind Speed 18 mph    
Max Gust Speed 29 mph    
Visibility 10 miles    
Events Rain , Snow    
Averages and records for this station are not official NWS values.
T = Trace of Precipitation, MM = Missing Value Source: NWS Daily Summary

Daily Weather History Graph

Daily Weather History Graph

Search for Another Location

Airport:

Trip Planner

Search our weather history database for the weather conditions in past years. The results will help you decide how hot, cold, wet, or windy it might be!

Date:

Astronomy

Feb. 14, 2013 Rise Set
Actual Time 7:16 AM CST 5:54 PM CST
Civil Twilight 6:48 AM CST 6:22 PM CST
Nautical Twilight 6:15 AM CST 6:55 PM CST
Astronomical Twilight 5:44 AM CST 7:27 PM CST
Moon 9:16 AM CST (2/14) 11:01 PM CST (2/14)
Length of Visible Light 11h 34m
Length of Day
10h 38m
Waxing Crescent, 22% of the Moon is Illuminated
Feb 14
Waxing Crescent
Feb 17
First Quarter
Feb 25
Full
Mar 4
Last Quarter
Mar 11
New

Hourly Weather History & Observations

Time (CST) Temp. Windchill Dew Point Humidity Pressure Visibility Wind Dir Wind Speed Gust Speed Precip Events Conditions
12:15 AM 37.4 °F 30.8 °F 28.4 °F 70% 29.77 in 10.0 mi West 9.2 mph - N/A   Scattered Clouds
12:35 AM 37.4 °F 30.8 °F 28.4 °F 70% 29.78 in 10.0 mi West 9.2 mph - N/A   Mostly Cloudy
12:55 AM 37.4 °F 33.8 °F 28.4 °F 70% 29.78 in 10.0 mi West 4.6 mph - N/A   Mostly Cloudy
1:15 AM 37.4 °F 32.1 °F 28.4 °F 70% 29.79 in 10.0 mi West 6.9 mph - N/A   Scattered Clouds
1:35 AM 37.4 °F 33.8 °F 28.4 °F 70% 29.79 in 10.0 mi West 4.6 mph - N/A   Scattered Clouds
1:55 AM 37.4 °F 32.1 °F 30.2 °F 75% 29.79 in 10.0 mi West 6.9 mph - N/A   Scattered Clouds
2:15 AM 37.4 °F 31.4 °F 28.4 °F 70% 29.80 in 10.0 mi West 8.1 mph - N/A   Scattered Clouds
2:35 AM 39.2 °F 33.0 °F 30.2 °F 70% 29.81 in 10.0 mi WNW 9.2 mph - N/A   Scattered Clouds
2:55 AM 39.2 °F 33.6 °F 30.2 °F 70% 29.82 in 10.0 mi WNW 8.1 mph - N/A   Scattered Clouds
3:15 AM 37.4 °F 32.8 °F 30.2 °F 75% 29.82 in 10.0 mi WNW 5.8 mph - N/A   Scattered Clouds
3:35 AM 35.6 °F 30.7 °F 28.4 °F 75% 29.83 in 10.0 mi WNW 5.8 mph - N/A   Scattered Clouds
3:55 AM 37.4 °F 30.8 °F 28.4 °F 70% 29.83 in 10.0 mi WNW 9.2 mph - N/A   Scattered Clouds
4:15 AM 37.4 °F 30.8 °F 30.2 °F 75% 29.83 in 10.0 mi WNW 9.2 mph - N/A   Scattered Clouds
4:35 AM 37.4 °F 30.8 °F 30.2 °F 75% 29.84 in 10.0 mi WNW 9.2 mph - N/A   Scattered Clouds
4:55 AM 37.4 °F 30.8 °F 30.2 °F 75% 29.85 in 10.0 mi WNW 9.2 mph - N/A   Scattered Clouds
5:15 AM 37.4 °F 29.3 °F 30.2 °F 75% 29.86 in 10.0 mi NW 12.7 mph 17.3 mph N/A   Scattered Clouds
5:35 AM 37.4 °F 29.8 °F 30.2 °F 75% 29.86 in 10.0 mi NW 11.5 mph 17.3 mph N/A   Scattered Clouds
5:55 AM 37.4 °F 30.3 °F 30.2 °F 75% 29.88 in 10.0 mi NNW 10.4 mph 19.6 mph N/A   Mostly Cloudy
6:15 AM 37.4 °F 32.1 °F 28.4 °F 70% 29.89 in 10.0 mi NNW 6.9 mph - N/A   Scattered Clouds
6:35 AM 35.6 °F 31.7 °F 28.4 °F 75% 29.89 in 10.0 mi NNW 4.6 mph - N/A   Scattered Clouds
6:55 AM 32.0 °F 25.6 °F 26.6 °F 80% 29.92 in 10.0 mi West 6.9 mph - N/A   Scattered Clouds
7:15 AM 33.8 °F 27.7 °F 28.4 °F 81% 29.93 in 10.0 mi West 6.9 mph - N/A   Scattered Clouds
7:35 AM 33.8 °F 29.6 °F 28.4 °F 81% 29.95 in 10.0 mi WNW 4.6 mph - N/A   Scattered Clouds
7:55 AM 33.8 °F 28.6 °F 28.4 °F 81% 29.95 in 10.0 mi NW 5.8 mph - N/A   Clear
8:15 AM 35.6 °F 30.7 °F 28.4 °F 75% 29.96 in 10.0 mi NW 5.8 mph - N/A   Clear
8:35 AM 35.6 °F 29.9 °F 30.2 °F 81% 29.96 in 10.0 mi NNW 6.9 mph - N/A   Clear
8:55 AM 37.4 °F 32.8 °F 30.2 °F 75% 29.96 in 10.0 mi NNW 5.8 mph - N/A   Clear
9:15 AM 37.4 °F 31.4 °F 28.4 °F 70% 29.96 in 10.0 mi NW 8.1 mph - N/A   Clear
9:35 AM 37.4 °F 31.4 °F 30.2 °F 75% 29.96 in 10.0 mi NW 8.1 mph - N/A   Clear
9:55 AM 39.2 °F 33.6 °F 28.4 °F 65% 29.96 in 10.0 mi NNW 8.1 mph - N/A   Clear
10:15 AM 39.2 °F 32.5 °F 30.2 °F 70% 29.97 in 10.0 mi WNW 10.4 mph - N/A   Clear
10:35 AM 41.0 °F 35.8 °F 30.2 °F 65% 29.97 in 10.0 mi WNW 8.1 mph - N/A   Clear
10:55 AM 41.0 °F 34.7 °F 30.2 °F 65% 29.98 in 10.0 mi WNW 10.4 mph 17.3 mph N/A   Mostly Cloudy
11:15 AM 41.0 °F 34.7 °F 30.2 °F 65% 29.99 in 10.0 mi WNW 10.4 mph 18.4 mph N/A   Overcast
11:35 AM 42.8 °F 35.8 °F 30.2 °F 61% 29.99 in 10.0 mi WNW 13.8 mph 21.9 mph N/A   Overcast
11:55 AM 42.8 °F 35.1 °F 30.2 °F 61% 29.99 in 10.0 mi NW 16.1 mph 20.7 mph N/A   Mostly Cloudy
12:15 PM 44.6 °F 38.1 °F 30.2 °F 57% 29.98 in 10.0 mi WNW 13.8 mph 17.3 mph N/A   Mostly Cloudy
12:35 PM 44.6 °F 37.4 °F 26.6 °F 49% 29.99 in 10.0 mi WNW 16.1 mph 23.0 mph N/A   Mostly Cloudy
12:55 PM 44.6 °F 37.4 °F 24.8 °F 46% 29.99 in 10.0 mi NW 16.1 mph 27.6 mph N/A   Scattered Clouds
1:15 PM 44.6 °F 38.4 °F 26.6 °F 49% 29.99 in 10.0 mi NW 12.7 mph 23.0 mph N/A   Mostly Cloudy
1:35 PM 46.4 °F 39.8 °F 26.6 °F 46% 29.99 in 10.0 mi NW 16.1 mph 19.6 mph N/A   Mostly Cloudy
1:55 PM 44.6 °F 38.8 °F 26.6 °F 49% 29.99 in 10.0 mi WNW 11.5 mph 20.7 mph N/A   Scattered Clouds
2:15 PM 44.6 °F 37.4 °F 26.6 °F 49% 30.00 in 10.0 mi NW 16.1 mph 21.9 mph N/A   Scattered Clouds
2:35 PM 44.6 °F 37.4 °F 23.0 °F 43% 30.01 in 10.0 mi NW 16.1 mph 28.8 mph N/A   Overcast
2:55 PM 44.6 °F 36.9 °F 21.2 °F 39% 30.01 in 10.0 mi NW 18.4 mph 25.3 mph N/A   Overcast
3:15 PM 44.6 °F 36.9 °F 21.2 °F 39% 30.02 in 10.0 mi NW 18.4 mph 25.3 mph N/A   Overcast
3:35 PM 44.6 °F 37.8 °F 21.2 °F 39% 30.03 in 10.0 mi NW 15.0 mph 25.3 mph N/A   Overcast
3:55 PM 44.6 °F 37.2 °F 21.2 °F 39% 30.04 in 10.0 mi NW 17.3 mph 21.9 mph N/A   Overcast
4:15 PM 42.8 °F 35.1 °F 23.0 °F 46% 30.04 in 10.0 mi NW 16.1 mph 21.9 mph N/A   Overcast
4:35 PM 42.8 °F 35.1 °F 23.0 °F 46% 30.05 in 10.0 mi NW 16.1 mph - N/A   Overcast
4:55 PM 42.8 °F 36.2 °F 24.8 °F 49% 30.05 in 10.0 mi NW 12.7 mph - N/A   Overcast
5:15 PM 41.0 °F 34.3 °F 24.8 °F 53% 30.06 in 10.0 mi NW 11.5 mph - N/A   Overcast
5:35 PM 41.0 °F 35.2 °F 24.8 °F 53% 30.07 in 10.0 mi NW 9.2 mph - N/A   Overcast
5:55 PM 39.2 °F 29.8 °F 28.4 °F 65% 30.08 in 10.0 mi NW 18.4 mph 25.3 mph N/A Rain Light Rain
6:15 PM 35.6 °F 26.6 °F 30.2 °F 81% 30.09 in 10.0 mi NW 13.8 mph 18.4 mph N/A   Overcast
6:35 PM 35.6 °F 28.6 °F 30.2 °F 81% 30.09 in 10.0 mi NW 9.2 mph - N/A Snow Light Snow
6:55 PM 35.6 °F 29.2 °F 30.2 °F 81% 30.10 in 10.0 mi NW 8.1 mph - N/A   Overcast
7:15 PM 35.6 °F 28.6 °F 30.2 °F 81% 30.10 in 10.0 mi NW 9.2 mph - N/A   Overcast
7:35 PM 35.6 °F 28.6 °F 30.2 °F 81% 30.10 in 10.0 mi NW 9.2 mph - N/A   Overcast
7:55 PM 35.6 °F 29.9 °F 30.2 °F 81% 30.11 in 10.0 mi WNW 6.9 mph - N/A   Overcast
8:15 PM 35.6 °F 29.9 °F 30.2 °F 81% 30.12 in 4.0 mi NNW 6.9 mph - N/A Snow Snow
8:35 PM 33.8 °F 25.8 °F 30.2 °F 87% 30.13 in 1.8 mi North 10.4 mph 17.3 mph N/A Snow Light Snow
8:55 PM 33.8 °F 23.2 °F 28.4 °F 81% 30.14 in 4.0 mi North 17.3 mph - N/A Snow Light Snow
9:15 PM 32.0 °F 22.1 °F 26.6 °F 80% 30.16 in 7.0 mi North 13.8 mph - N/A Snow Snow
9:35 PM 30.2 °F 18.9 °F 23.0 °F 75% 30.17 in 10.0 mi North 16.1 mph 20.7 mph N/A   Overcast
9:55 PM 30.2 °F 20.2 °F 21.2 °F 69% 30.19 in 10.0 mi North 12.7 mph - N/A   Overcast
10:15 PM 30.2 °F 18.9 °F 19.4 °F 64% 30.20 in 10.0 mi NNW 16.1 mph - N/A   Overcast
10:35 PM 28.4 °F 17.5 °F 17.6 °F 64% 30.20 in 10.0 mi North 13.8 mph 19.6 mph N/A   Overcast
10:55 PM 28.4 °F 16.6 °F 17.6 °F 64% 30.22 in 10.0 mi NNW 16.1 mph 23.0 mph N/A   Overcast
11:15 PM 28.4 °F 17.0 °F 17.6 °F 64% 30.23 in 10.0 mi NNW 15.0 mph - N/A   Overcast
11:35 PM 26.6 °F 16.8 °F 15.8 °F 64% 30.23 in 10.0 mi NNW 10.4 mph - N/A   Overcast
11:55 PM 26.6 °F 15.7 °F 15.8 °F 64% 30.24 in 10.0 mi NNW 12.7 mph 21.9 mph N/A   Overcast